Presure
294 290 296 302 313 324 332 338 340 325 353 347 361 362 380 324 324 305 311 304 305 250 239 221 197 193 194 187 186 178 181 180 177 172 177 180 179 172 168 174 179 180 170 159
271 282 287 291 303 310 320 331 343 349 350 328 329 329 324 315 303 303 295 297 295 280 242 225 202 196 195 191 183 183 184 183 182 179 175 173 165 178 174 180 171 144 181 204
245 259 278 282 291 305 302 285 290 298 320 311 307 301 295 289 285 284 286 285 284 223 243 228 206 198 196 192 189 189 187 180 172 167 167 181 163 174 172 178 179 198 189 195
249 249 249 215 272 271 267 278 275 275 275 278 279 277 272 271 273 272 273 272 242 269 212 160 191 198 197 193 191 191 178 188 186 186 163 170 173 175 182 197 199 181 189 193
228 241 248 246 248 253 258 258 264 265 268 268 268 266 264 261 260 259 258 257 260 263 261 244 232 206 193 192 192 192 188 156 163 169 173 179 188 208 199 180 192 201 199 190
232 237 227 226 243 242 242 246 247 247 250 253 257 259 257 255 252 251 250 250 250 252 251 247 236 227 218 174 173 179 187 185 189 189 207 208 193 193 192 189 185 172 178 201
211 220 227 234 228 235 235 196 177 234 237 238 216 242 243 242 243 242 241 240 238 237 235 232 226 220 182 164 186 186 183 197 214 197 193 183 189 187 190 171 173 188 192 187
209 204 202 215 226 230 225 225 224 229 231 230 230 229 231 233 233 233 231 227 223 221 151 166 202 202 203 202 208 192 199 192 193 192 190 165 174 167 168 173 190 168 176 200
200 194 197 181 206 205 214 218 222 224 224 224 223 223 222 222 222 222 223 223 222 129 218 153 216 220 226 195 188 191 185 187 180 170 161 171 160 187 192 188 171 195 198 202
190 192 183 180 183 181 200 190 202 203 202 202 199 204 205 203 209 197 195 211 210 208 202 197 100 189 187 182 178 184 172 165 165 180 183 185 176 172 174 191 200 199 199 199
177 192 195 182 189 195 196 196 195 200 196 197 185 192 193 196 195 145 192 190 183 178 182 152 183 188 190 178 170 182 182 176 180 159 169 172 182 171 191 201 161 207 202 215
179 180 185 191 191 193 188 181 183 186 183 181 181 183 157 130 182 181 152 173 186 148 174 174 180 183 163 185 189 171 169 163 178 186 169 175 180 189 195 202 207 211 223 239
188 184 170 170 174 184 183 187 188 186 185 184 173 184 183 185 183 181 175 186 182 128 180 179 188 144 166 177 169 181 186 165 190 191 192 190 190 196 197 209 219 233 241 298
189 188 176 184 178 176 176 174 181 188 190 189 182 183 183 187 183 180 176 178 148 163 170 169 153 174 168 169 165 164 181 184 189 191 197 198 205 209 211 226 236 257 301 296
170 173 182 165 178 166 174 176 172 173 177 178 182 176 177 180 180 181 180 174 172 188 186 173 165 179 188 178 179 174 192 191 189 198 203 210 211 220 235 242 281 295 296 312
181 181 171 179 175 151 187 168 185 188 189 177 180 182 189 187 158 181 193 182 127 185 179 183 188 186 184 184 189 192 194 195 203 209 211 215 229 236 263 296 298 298 317 416
187 186 187 188 186 188 187 191 181 153 188 190 191 188 189 190 93 197 187 190 170 165 188 186 182 189 194 191 193 199 198 208 209 214 225 232 247 270 304 293 289 329 400 411
186 185 181 182 184 186 184 188 167 176 178 197 193 197 181 179 203 165 200 157 189 174 169 191 193 195 196 202 203 207 206 214 221 230 242 258 280 301 293 300 336 411 404 394
205 198 196 195 187 189 186 191 180 190 196 181 177 158 189 201 203 192 120 186 184 192 194 197 202 204 205 208 207 214 217 225 242 249 265 300 294 297 307 386 399 407 394 380
189 194 207 181 199 198 197 193 194 196 188 164 195 190 189 182 196 209 184 189 196 198 197 205 212 207 206 212 220 225 236 248 258 266 292 302 297 309 387 368 397 392 378 358
191 184 189 193 207 178 180 208 207 203 181 169 217 193 199 199 232 131 193 202 202 204 213 205 210 215 222 227 241 242 251 260 284 306 301 296 333 384 353 388 382 375 356 344
200 175 196 195 196 196 199 204 149 202 207 217 223 236 186 202 201 200 203 205 211 209 212 216 222 225 239 242 241 250 264 272 309 296 311 378 369 386 381 382 367 352 338 329
219 201 190 172 190 192 193 181 190 184 193 176 106 195 143 98 204 186 207 214 208 220 218 225 236 242 245 241 257 261 293 296 313 335 396 321 384 379 373 358 351 337 327 364
236 234 223 206 201 181 184 195 194 179 196 193 197 151 204 105 200 212 210 217 222 227 235 246 240 251 256 260 274 306 315 336 390 359 370 380 376 364 353 343 335 320 318 447
238 234 230 227 223 217 214 210 210 208 195 194 204 205 210 214 221 225 234 232 239 246 244 246 255 259 274 312 314 336 359 366 373 373 377 367 356 348 337 329 319 338 459 419
231 237 229 224 229 230 228 229 230 229 174 230 229 230 233 237 239 242 244 247 248 247 258 264 270 298 307 346 372 373 360 377 346 370 362 351 344 335 323 320 364 462 442 397
254 248 245 240 231 229 234 236 236 238 238 238 240 240 242 245 246 250 253 253 262 269 277 307 308 290 363 390 379 382 366 356 364 356 348 339 330 320 323 400 442 463 417 377
Wind_Speed
37 37 33 30 26 22 17 8 5 4 6 4 9 14 24 36 39 42 44 51 53 62 86 84 78 76 78 74 74 68 71 72 73 72 75 76 77 76 81 88 93 97 96 85
41 39 36 34 30 29 24 21 17 15 15 13 18 23 30 32 33 37 40 44 48 69 84 84 76 75 75 71 69 69 71 72 73 72 71 71 72 84 86 92 92 69 104 104
33 39 39 38 34 32 32 35 34 31 24 27 30 31 33 33 34 35 40 42 44 35 78 81 74 71 70 66 66 68 70 67 63 63 67 79 71 85 88 94 98 99 91 103
31 35 38 17 39 39 39 37 38 36 33 30 29 29 30 28 29 31 33 35 34 49 50 26 52 65 64 63 65 67 60 70 72 75 65 76 83 87 93 91 92 88 102 103
24 31 33 35 37 38 38 37 37 35 31 28 26 25 25 25 26 26 28 31 36 41 50 64 69 66 59 61 63 65 65 52 62 70 77 83 87 80 84 82 93 93 96 104
25 25 24 26 31 33 34 34 33 32 29 25 22 20 20 18 17 17 19 22 26 31 38 48 58 65 70 44 49 59 68 69 75 76 77 70 78 78 84 90 96 100 112 107
14 17 23 25 24 28 28 3 5 26 24 22 10 17 14 11 10 11 14 19 25 31 38 45 52 57 46 41 58 62 63 68 65 66 70 73 77 83 87 89 103 108 108 112
9 9 9 16 21 22 21 21 20 21 19 17 15 13 10 9 9 11 15 21 25 30 26 30 43 48 51 55 58 51 55 58 61 64 69 65 85 87 91 100 104 96 110 114
5 7 6 9 8 10 14 16 16 16 15 13 12 10 9 9 9 11 14 18 22 27 31 31 39 43 46 45 50 50 57 59 67 73 72 86 79 94 97 103 103 110 113 117
12 11 13 13 10 11 3 6 5 6 6 6 5 7 8 9 9 12 14 16 19 22 24 29 21 40 45 49 55 57 66 69 74 83 86 89 94 100 102 106 109 113 115 118
25 16 15 19 14 11 10 9 8 7 7 8 12 11 14 15 16 22 19 22 28 33 35 33 42 45 48 58 59 67 70 75 80 72 90 92 98 102 107 109 78 116 117 125
30 28 25 20 19 17 18 21 20 18 19 21 22 22 20 28 27 29 30 32 34 37 44 47 50 55 49 59 63 68 77 79 86 89 91 102 104 106 108 114 118 121 127 134
33 33 37 35 33 28 27 25 25 27 27 29 33 30 31 31 34 36 36 39 43 29 46 51 53 52 65 70 66 77 80 87 88 93 97 102 106 108 111 118 125 130 134 129
41 40 41 37 38 38 37 37 35 33 33 34 37 37 39 40 42 44 46 48 39 53 57 61 54 67 72 76 77 83 87 90 93 97 101 105 109 114 117 125 128 133 122 123
47 46 45 34 45 43 44 44 45 45 45 45 45 47 48 49 51 52 53 54 57 59 60 66 70 74 75 81 84 86 89 93 97 102 107 111 114 120 126 128 127 120 120 118
55 54 52 51 50 33 50 50 48 48 47 44 52 52 51 54 46 52 57 64 43 64 67 70 72 76 80 83 87 91 95 99 104 108 112 117 123 125 129 119 116 117 116 78
60 60 58 56 55 55 54 55 53 43 52 54 55 56 56 57 24 61 59 61 68 70 72 74 77 81 85 88 93 97 100 105 109 114 120 122 127 129 113 114 116 112 83 69
62 63 61 60 60 59 58 58 48 57 57 62 61 64 58 58 70 54 67 55 72 73 75 80 84 88 91 95 99 103 106 112 117 121 125 129 129 114 114 115 111 73 66 63
75 72 70 70 66 66 64 64 61 65 65 61 57 55 65 72 73 72 37 73 75 79 83 87 90 93 97 100 104 110 114 119 122 124 131 118 115 112 115 90 75 63 58 55
72 73 78 68 76 75 73 69 68 70 68 54 72 67 68 67 72 82 75 77 83 85 88 92 96 97 101 107 113 117 120 125 130 133 127 113 112 115 85 83 63 57 53 53
77 73 74 73 80 66 69 81 80 77 70 60 86 78 80 79 93 46 80 86 88 91 96 95 100 106 112 116 118 120 126 129 130 113 111 112 109 82 84 64 58 52 51 51
83 67 79 76 76 76 75 81 55 77 82 89 93 95 72 87 88 86 88 91 96 96 101 104 110 113 118 118 118 126 132 132 113 113 113 87 81 68 62 55 52 49 50 50
91 81 73 62 75 76 77 69 79 75 83 66 32 86 57 32 93 80 94 100 97 107 108 113 117 117 119 120 129 130 123 114 111 106 74 90 64 59 53 51 49 49 49 41
97 96 94 91 88 71 76 83 84 69 89 87 90 55 96 35 94 101 101 105 109 112 115 118 115 124 130 133 135 113 111 108 79 84 72 60 55 52 50 50 50 49 49 22
98 95 94 93 95 95 96 96 96 97 87 85 96 96 100 101 104 106 110 110 114 117 115 118 128 130 129 110 110 108 94 83 73 65 58 55 52 51 51 51 49 47 23 20
90 98 92 90 95 98 99 102 104 105 71 105 104 104 106 108 109 112 115 117 117 116 128 130 132 116 109 108 91 81 77 65 68 56 53 53 52 51 51 50 45 27 19 17
110 107 106 104 98 98 103 105 106 106 105 105 107 107 110 112 112 117 120 119 127 131 131 110 108 110 97 76 72 63 62 61 55 53 53 52 50 49 50 39 31 18 17 16
Wind_Direction
38 42 40 36 31 28 27 13 288 350 275 155 177 175 177 184 184 193 186 195 202 213 214 220 223 228 233 240 244 253 256 260 264 269 273 276 281 286 287 287 288 290 293 300
43 46 47 50 48 47 50 56 65 80 85 117 139 153 151 155 164 172 176 183 190 208 213 219 223 229 234 240 247 252 256 259 264 270 277 281 284 284 286 286 290 299 294 295
55 52 49 55 60 61 65 73 77 83 91 105 114 123 129 140 151 161 169 177 188 205 213 219 224 231 236 242 248 252 256 263 272 278 281 280 286 284 287 290 291 293 298 297
44 59 59 46 58 63 64 68 73 76 81 91 105 116 121 132 145 156 166 177 196 204 218 242 229 234 240 245 250 255 264 265 270 274 283 281 283 288 289 291 293 299 295 296
47 48 58 63 63 61 63 64 68 73 82 90 104 112 122 132 143 157 171 185 196 207 216 222 228 235 244 249 254 259 265 280 275 277 279 283 286 289 291 297 294 297 299 299
46 52 63 64 63 69 66 66 68 71 73 78 88 102 115 129 145 162 179 193 205 214 222 228 232 236 241 264 267 267 266 270 272 278 282 286 288 291 292 293 292 299 299 300
21 49 56 58 69 67 70 58 270 77 78 80 101 90 102 119 148 174 196 209 217 223 228 233 237 242 259 274 261 265 271 274 277 280 283 290 289 289 292 303 296 297 301 303
4 16 28 63 66 65 77 81 85 83 86 92 99 105 116 140 171 201 218 228 234 238 265 266 250 252 256 259 263 273 272 277 282 284 287 295 292 302 297 301 298 308 307 304
305 303 330 293 61 71 81 87 89 91 96 102 110 121 138 160 183 204 219 228 234 280 243 275 251 255 260 262 268 273 276 282 283 294 305 291 310 296 297 297 306 301 303 305
259 262 268 271 281 285 116 304 113 125 136 146 181 164 172 191 198 225 236 230 235 240 246 252 288 264 268 273 279 278 286 300 300 287 290 289 296 300 302 300 302 302 303 305
253 247 247 259 257 257 258 257 260 227 237 230 263 254 251 243 242 279 251 260 269 273 272 276 274 271 271 278 281 279 283 289 289 309 302 301 296 302 299 302 313 305 306 309
247 254 256 250 250 247 251 262 262 259 263 266 267 268 266 282 269 270 280 271 266 289 283 283 276 277 286 281 284 296 296 307 293 289 303 297 296 298 301 303 305 307 309 310
235 241 261 265 267 262 264 261 260 260 259 262 281 263 263 261 262 269 270 271 273 283 280 283 283 302 300 287 299 287 288 304 292 294 295 295 297 300 301 307 308 309 310 309
237 239 249 243 254 263 267 273 270 266 267 268 272 271 271 271 271 276 283 283 286 301 292 294 311 288 295 294 300 301 291 292 294 296 298 299 302 304 306 308 308 309 309 309
246 246 243 249 250 269 263 263 271 274 271 273 269 279 279 275 275 275 276 283 288 280 282 288 296 286 285 288 290 295 294 295 296 299 301 304 305 307 308 308 311 310 310 312
244 245 251 249 252 276 254 268 258 261 263 263 266 266 269 268 270 273 274 272 288 281 281 282 285 286 288 290 294 295 296 298 300 303 303 305 306 308 310 311 310 312 314 313
245 248 250 252 254 258 260 262 258 285 267 270 271 270 272 274 271 280 278 285 283 292 284 286 288 292 294 294 296 298 298 303 303 304 306 306 308 312 310 310 311 314 315 313
244 248 252 254 255 257 260 262 264 266 272 272 274 277 272 282 283 278 284 295 281 283 290 293 295 295 295 298 299 302 302 304 305 306 307 310 313 311 310 312 314 313 313 314
246 248 252 255 257 259 260 264 268 269 270 274 273 283 277 281 284 282 300 286 289 292 294 295 296 298 300 302 301 304 304 304 307 308 313 310 309 311 313 314 313 312 313 315
244 247 251 255 256 259 262 264 267 269 271 271 276 277 278 279 285 286 287 291 292 293 294 298 300 301 301 302 304 304 305 307 309 311 310 309 311 314 315 314 312 313 315 314
244 249 250 253 256 262 265 265 268 270 273 273 277 278 280 284 284 297 291 293 295 297 300 300 301 302 305 304 305 306 308 310 311 307 309 310 313 313 312 311 313 314 314 313
245 256 250 254 257 260 263 266 275 272 275 276 278 279 282 285 287 291 294 296 298 299 300 301 304 304 305 305 305 308 310 310 308 308 310 312 312 311 311 312 312 313 313 314
244 251 256 259 260 262 264 266 269 272 273 276 285 282 284 291 289 294 295 296 297 299 301 302 302 304 304 303 307 308 307 307 309 310 310 310 309 310 311 310 310 312 314 314
249 250 252 256 258 263 264 266 268 274 272 275 277 281 282 293 291 292 294 295 296 298 299 302 302 303 304 305 305 305 306 308 308 308 309 308 308 309 308 309 311 313 314 302
253 255 256 257 259 260 263 265 266 268 274 277 277 281 283 286 288 290 292 294 297 299 301 301 302 303 303 303 304 307 306 307 308 308 306 307 306 306 308 309 312 312 300 290
257 257 259 260 261 263 265 268 269 271 274 275 277 280 283 286 288 291 294 296 297 298 299 300 301 301 302 306 304 304 305 306 306 305 304 304 305 307 309 310 309 304 288 278
256 259 261 262 264 265 267 268 270 273 276 279 281 283 285 288 290 292 293 295 297 299 300 300 300 300 304 303 303 303 304 303 302 302 303 305 307 308 307 305 302 279 275 270